Tracking 29892 objects as of 21-Nov-2024
HD Live streaming from Space Station
objects crossing your sky now

COSMOS 1302

Track COSMOS 1302 now!
10-day predictions
COSMOS 1302 is classified as:


NORAD ID: 12791
Int'l Code: 1981-084A
Perigee: 770.4 km
Apogee: 795.7 km
Inclination: 74.0 °
Period: 100.4 minutes
Semi major axis: 7154 km
RCS: 2.1358 m2 (large)
Launch date: August 28, 1981
Source: Commonwealth of Independent States (former USSR) (CIS)
Launch site: PLESETSK MISSILE AND SPACE COMPLEX (PKMTR)
Your satellite tracking list
Your tracking list is empty




NASA's NSSDC Master Catalog

Two Line Element Set (TLE):
1 12791U 81084A   24326.08817391  .00000270  00000-0  10437-3 0  9992
2 12791  74.0271 201.9723 0017694 138.0936 222.1574 14.34745423260787
Source of the keplerian elements: AFSPC